Domov               UVHVVR             MKGP            O straneh              
ZDRAVSTVENO VARSTVO RASTLIN
  MREŽA AGROMET. POSTAJ
 ► PROGNOSTIČNA OBVESTILA
AGROMETEOROLOŠKI PODATKI -
ARSO
OBVLADOVANJE TVEGANJ ZARADI
NEUGODNIH VREMENSKIH RAZMER
  ► NARAVNE NESREČE
  ► SUŠA/MOČA
  ► NAMAKANJE
  ► ŽLED (gozdarstvo)
KARTOGRAFSKI PRIKAZI
SPLETNE POVEZAVE
PROJEKTI IN PUBLIKACIJE

AGROMETEOROLOŠKA MREŽA: VREMENSKE POSTAJE IN FENOLOŠKA OPAZOVANJA

Pregled podatkov za lokacijo Kozana, meteorološka postaja 863701

Pregled senzorjev na lokaciji

ID Ime Zadnja
vrednost
Datum
zadnje
spremembe
Tip
senzorja
4186 Temperatura 2 m ( °C) 12,9 °C 17.10.2017 07:29 50YA
4187 Relativna vlaga 2 m (% RH) 80,62 % RH 17.10.2017 07:30 50YA
4188 Omočenost lista (U) 10 U 17.10.2017 07:30 A730WET
4189 Padavine 0.2 mm (mm) 0 mm 17.10.2017 07:30 Rain-O-Matic

Pregled podatkov zadnjih 24 ur

Zap.
št.
Datum in čas Kozana
Omočenost
lista
Padavine
0.2
mm
Relativna
vlaga
2
m
Temperatura
2
m
0 17.10.2017 06:30 10 0 80,62 12,9
1 17.10.2017 06:00 10 0 81,39 12,83
2 17.10.2017 05:30 10 0 81,64 12,95
3 17.10.2017 05:00 10 0 82,43 12,97
4 17.10.2017 04:30 10 0 83,45 12,91
5 17.10.2017 04:00 10 0 82,95 13,22
6 17.10.2017 03:30 10 0 83,88 13,21
7 17.10.2017 03:00 10 0 84,67 13,25
8 17.10.2017 02:30 10 0 86,2 13,13
9 17.10.2017 02:00 10 0 85,24 13,59
10 17.10.2017 01:30 10 0 85,96 13,67
11 17.10.2017 01:00 10 0 86,36 13,66
12 17.10.2017 00:30 10 0 86,42 13,89
13 17.10.2017 00:00 10 0 85,41 14,25
14 16.10.2017 23:30 10 0 84,57 14,62
15 16.10.2017 23:00 10 0 85,63 14,63
16 16.10.2017 22:30 10 0 87,39 14,59
17 16.10.2017 22:00 10 0 88,48 14,62
18 16.10.2017 21:30 10 0 89,76 14,84
19 16.10.2017 21:00 10 0 91,55 15,04
20 16.10.2017 20:30 10 0 89,45 15,55
21 16.10.2017 20:00 10 0 90,62 15,61
22 16.10.2017 19:30 10 0 89,87 15,74
23 16.10.2017 19:00 10 0 87,01 16,02
24 16.10.2017 18:30 7 0 86,26 16,47
25 16.10.2017 18:00 2 0 84,82 17,09
26 16.10.2017 17:30 0 0 81,78 17,9
27 16.10.2017 17:00 0 0 77,77 19,29
28 16.10.2017 16:30 0 0 72,37 20,94
29 16.10.2017 16:00 0 0 65,73 22,53
30 16.10.2017 15:30 0 0 57,06 23,76
31 16.10.2017 15:00 0 0 49,92 24,45
32 16.10.2017 14:30 0 0 50,22 24,41
33 16.10.2017 14:00 0 0 50,14 24,73
34 16.10.2017 13:30 0 0 52,44 24,23
35 16.10.2017 13:00 0 0 53,49 24,14
36 16.10.2017 12:30 0 0 53,71 23,74
37 16.10.2017 12:00 0 0 56,34 23,31
38 16.10.2017 11:30 0 0 54,89 23,45
39 16.10.2017 11:00 0 0 52,25 22,5
40 16.10.2017 10:30 0 0 55,21 22,08
41 16.10.2017 10:00 0 0 59,57 20,54
42 16.10.2017 09:30 0 0 62,49 19,34
43 16.10.2017 09:00 0 0 64,76 18,25
44 16.10.2017 08:30 1 0 68,23 17,56
45 16.10.2017 08:00 10 0 72,79 16,03
© 2011 Ministrstvo za kmetijstvo, gozdarstvo in prehrano. Vse pravice pridržane.